Starlink 3946

operational
NORAD ID: 52693 Int'l Des: 2022-053 Owner: SPXS Country: US Constellation: starlink
LEOCIRCULAR

关于 Starlink 3946

正在加载描述...

实时位置

正在加载3D地球...

即将过境

高度历史

Altitude vs Time

uPlot chart will show altitude changes over time

两行轨道根数

1 52693U 22053AP 25353.81764681 .00002039 00000-0 14616-3 0 9991
2 52693 53.2173 142.6760 0002082 97.7402 262.3827 15.08852646199098
Epoch: Dec 19, 2025 • Age: 28 hours

当前状态

高度 539.2 km
速度 7.60 km/s
星下点 13.21°N, 132.91°W
发射日期 May 18, 2022
运行时间 3.5 years
类型 internet

技术详情

分类 Payload
质量 297.00 kg
干质量 275.00 kg
总质量 297.00 kg
长度 0.20 m
直径 2.80 m
跨度 9.00 m
形状 Box + pan
制造商 SPXS
平台类型 Starlink
阶段状态 In Orbit
所有者/国家 SPXS/US

大型星座

Loading constellations...